Location: Pedholt
(56.0260°N, 10.2097°E)
Time: 04:56:03
(UTC+00:00)

Vanguard 3 - Pass Details

Date: 05 August 2021
Orbit: 510 x 3260 km, 33.3° (Epoch: 19 September)

Event Time Altitude Azimuth Distance (km) Brightness Sun altitude
Rises 19:40:20 0° 256° (WSW) 6,083 12.2 -3.4°
Reaches altitude 10° 19:44:43 10° 247° (WSW) 5,415 11.8 -3.9°
Maximum altitude 19:58:11 30° 195° (SSW) 4,629 10.8 -5.3°
Drops below altitude 10° 20:13:24 10° 145° (SE) 6,111 10.9 -6.9°
Enters shadow 20:15:02 - 142° (SE) 6,355 11.0 -7.0°
